Location: Unspecified
(0.0000°N, 0.0000°E)
Time: 14:15:18
(UTC+00:00)

Envisat - Pass Details

Date: 09 April 2021
Orbit: 764 x 766 km, 98.1° (Epoch: 16 April)

Event Time Altitude Azimuth Distance (km) Brightness Sun altitude
Rises 03:57:51 0° 53° (NE) 3,217 7.1 -30.6°
Reaches altitude 10° 04:02:26 10° 92° (E) 2,296 6.4 -29.5°
Maximum altitude 04:03:21 10° 103° (ESE) 2,265 6.2 -29.3°
Drops below altitude 10° 04:04:16 10° 113° (ESE) 2,298 6.1 -29.1°
Sets 04:08:52 0° 152° (SSE) 3,229 6.5 -27.9°
